Weather in Podkumok

Russia / Stavropol Krai     43°57′56″N   42°46′20″E
temp.,
°C
wind,
m/s
gust,
m/s
humid.,
%
clouds,
%
prec.,
mm/h
press.,
hPa
HPBL,
m
5 december, sun
sun500:00+6ssw32395 0.0 101211
03:00+6ssw3233100 0.0 101112
06:00+7sw2234100 0.0 101011
09:00+7wsw2240100 0.0 101212
12:00+9nne2236100 0.0 1011331
15:00+9sse114399 0.0 101238
18:00+7wsw115017 0.0 101410
21:00+6ssw225625 0.0 101610
6 december, mon
mon600:00+5ssw22565 0.0 101610
03:00+4ssw115489 0.0 101810
06:00+4s22564 0.0 101810
09:00+6s22540 0.0 101915
12:00+10ne21425 0.0 1018251
15:00+10ene224670 0.0 1019202
18:00+6se216014 0.0 102111
21:00+6sse22590 0.0 102112
7 december, tue
tue700:00+6s22590 0.0 102010
03:00+5s22584 0.0 102110
06:00+5s22560 0.0 102110
09:00+7sse22505 0.0 102023
12:00+12e45370 0.0 1017351
15:00+11e45481 0.0 1016263
18:00+6se34640 0.0 101651
21:00+6se33600 0.0 101431
8 december, wed
wed800:00+6se22470 0.0 101222
03:00+5se22410 0.0 101117
06:00+5sse11380 0.0 101111
09:00+7sse113499 0.0 101115
12:00+11ene1133100 0.0 100946
15:00+11ne114070 0.0 100815
18:00+8w11454 0.0 100910
21:00+8w224395 0.0 101014
9 december, thu
thu900:00+8w51251100 0.0 1011242
03:00+7wsw4857100 0.0 1014124
06:00+7wsw2264100 0.0 101518
09:00+6sw3379100 0.4 101770
12:00+6wsw2485100 0.4 1017252
15:00+8w2676100 0.4 1018418
18:00+6w3378100 0.0 102033
21:00+6nw118516 0.0 102116